Index of /20260430/WXO-DD/model_rdps/10km/18/005
Name Last modified Size Description
Parent Directory -
20260430T18Z_MSC_RDPS_AbsoluteVorticity_IsbL-0250_RLatLon0.09_PT005H.grib2 2026-04-30 20:40 615K
20260430T18Z_MSC_RDPS_AbsoluteVorticity_IsbL-0500_RLatLon0.09_PT005H.grib2 2026-04-30 20:40 560K
20260430T18Z_MSC_RDPS_AbsoluteVorticity_IsbL-0700_RLatLon0.09_PT005H.grib2 2026-04-30 20:40 631K
20260430T18Z_MSC_RDPS_AbsoluteVorticity_IsbL-0850_RLatLon0.09_PT005H.grib2 2026-04-30 20:40 773K
20260430T18Z_MSC_RDPS_AirTemp_AGL-120m_RLatLon0.09_PT005H.grib2 2026-04-30 20:40 388K
20260430T18Z_MSC_RDPS_AirTemp_AGL-2m_RLatLon0.09_PT005H.grib2 2026-04-30 20:40 619K
20260430T18Z_MSC_RDPS_AirTemp_AGL-40m_RLatLon0.09_PT005H.grib2 2026-04-30 20:40 398K
20260430T18Z_MSC_RDPS_AirTemp_AGL-80m_RLatLon0.09_PT005H.grib2 2026-04-30 20:40 392K
20260430T18Z_MSC_RDPS_AirTemp_IsbL-0001_RLatLon0.09_PT005H.grib2 2026-04-30 20:40 265K
20260430T18Z_MSC_RDPS_AirTemp_IsbL-0005_RLatLon0.09_PT005H.grib2 2026-04-30 20:40 278K
20260430T18Z_MSC_RDPS_AirTemp_IsbL-0010_RLatLon0.09_PT005H.grib2 2026-04-30 20:40 289K
20260430T18Z_MSC_RDPS_AirTemp_IsbL-0020_RLatLon0.09_PT005H.grib2 2026-04-30 20:40 303K
20260430T18Z_MSC_RDPS_AirTemp_IsbL-0030_RLatLon0.09_PT005H.grib2 2026-04-30 20:40 324K
20260430T18Z_MSC_RDPS_AirTemp_IsbL-0050_RLatLon0.09_PT005H.grib2 2026-04-30 20:40 299K
20260430T18Z_MSC_RDPS_AirTemp_IsbL-0100_RLatLon0.09_PT005H.grib2 2026-04-30 20:40 413K
20260430T18Z_MSC_RDPS_AirTemp_IsbL-0150_RLatLon0.09_PT005H.grib2 2026-04-30 20:40 418K
20260430T18Z_MSC_RDPS_AirTemp_IsbL-0175_RLatLon0.09_PT005H.grib2 2026-04-30 20:40 409K
20260430T18Z_MSC_RDPS_AirTemp_IsbL-0200_RLatLon0.09_PT005H.grib2 2026-04-30 20:40 416K
20260430T18Z_MSC_RDPS_AirTemp_IsbL-0225_RLatLon0.09_PT005H.grib2 2026-04-30 20:40 418K
20260430T18Z_MSC_RDPS_AirTemp_IsbL-0250_RLatLon0.09_PT005H.grib2 2026-04-30 20:40 425K
20260430T18Z_MSC_RDPS_AirTemp_IsbL-0275_RLatLon0.09_PT005H.grib2 2026-04-30 20:40 406K
20260430T18Z_MSC_RDPS_AirTemp_IsbL-0300_RLatLon0.09_PT005H.grib2 2026-04-30 20:40 437K
20260430T18Z_MSC_RDPS_AirTemp_IsbL-0350_RLatLon0.09_PT005H.grib2 2026-04-30 20:40 426K
20260430T18Z_MSC_RDPS_AirTemp_IsbL-0400_RLatLon0.09_PT005H.grib2 2026-04-30 20:40 427K
20260430T18Z_MSC_RDPS_AirTemp_IsbL-0450_RLatLon0.09_PT005H.grib2 2026-04-30 20:40 400K
20260430T18Z_MSC_RDPS_AirTemp_IsbL-0500_RLatLon0.09_PT005H.grib2 2026-04-30 20:40 412K
20260430T18Z_MSC_RDPS_AirTemp_IsbL-0550_RLatLon0.09_PT005H.grib2 2026-04-30 20:40 431K
20260430T18Z_MSC_RDPS_AirTemp_IsbL-0600_RLatLon0.09_PT005H.grib2 2026-04-30 20:40 454K
20260430T18Z_MSC_RDPS_AirTemp_IsbL-0650_RLatLon0.09_PT005H.grib2 2026-04-30 20:40 366K
20260430T18Z_MSC_RDPS_AirTemp_IsbL-0700_RLatLon0.09_PT005H.grib2 2026-04-30 20:40 386K
20260430T18Z_MSC_RDPS_AirTemp_IsbL-0750_RLatLon0.09_PT005H.grib2 2026-04-30 20:40 414K
20260430T18Z_MSC_RDPS_AirTemp_IsbL-0800_RLatLon0.09_PT005H.grib2 2026-04-30 20:40 449K
20260430T18Z_MSC_RDPS_AirTemp_IsbL-0850_RLatLon0.09_PT005H.grib2 2026-04-30 20:40 490K
20260430T18Z_MSC_RDPS_AirTemp_IsbL-0875_RLatLon0.09_PT005H.grib2 2026-04-30 20:40 510K
20260430T18Z_MSC_RDPS_AirTemp_IsbL-0900_RLatLon0.09_PT005H.grib2 2026-04-30 20:40 519K
20260430T18Z_MSC_RDPS_AirTemp_IsbL-0925_RLatLon0.09_PT005H.grib2 2026-04-30 20:40 519K
20260430T18Z_MSC_RDPS_AirTemp_IsbL-0950_RLatLon0.09_PT005H.grib2 2026-04-30 20:40 520K
20260430T18Z_MSC_RDPS_AirTemp_IsbL-0970_RLatLon0.09_PT005H.grib2 2026-04-30 20:40 513K
20260430T18Z_MSC_RDPS_AirTemp_IsbL-0985_RLatLon0.09_PT005H.grib2 2026-04-30 20:40 516K
20260430T18Z_MSC_RDPS_AirTemp_IsbL-1000_RLatLon0.09_PT005H.grib2 2026-04-30 20:40 504K
20260430T18Z_MSC_RDPS_AirTemp_IsbL-1015_RLatLon0.09_PT005H.grib2 2026-04-30 20:40 500K
20260430T18Z_MSC_RDPS_Albedo_Sfc_RLatLon0.09_PT005H.grib2 2026-04-30 20:40 154K
20260430T18Z_MSC_RDPS_CAPE_Sfc_RLatLon0.09_PT005H.grib2 2026-04-30 20:40 1.7M
20260430T18Z_MSC_RDPS_CIN_Sfc_RLatLon0.09_PT005H.grib2 2026-04-30 20:40 1.3M
20260430T18Z_MSC_RDPS_CloudWater_EAtm_RLatLon0.09_PT005H.grib2 2026-04-30 20:40 221K
20260430T18Z_MSC_RDPS_ConvectivePrecip-Accum_Sfc_RLatLon0.09_PT005H.grib2 2026-04-30 20:40 518K
20260430T18Z_MSC_RDPS_DewPointDepression_AGL-2m_RLatLon0.09_PT005H.grib2 2026-04-30 20:40 412K
20260430T18Z_MSC_RDPS_DewPointDepression_IsbL-0001_RLatLon0.09_PT005H.grib2 2026-04-30 20:40 193
20260430T18Z_MSC_RDPS_DewPointDepression_IsbL-0005_RLatLon0.09_PT005H.grib2 2026-04-30 20:40 193
20260430T18Z_MSC_RDPS_DewPointDepression_IsbL-0010_RLatLon0.09_PT005H.grib2 2026-04-30 20:40 193
20260430T18Z_MSC_RDPS_DewPointDepression_IsbL-0020_RLatLon0.09_PT005H.grib2 2026-04-30 20:40 193
20260430T18Z_MSC_RDPS_DewPointDepression_IsbL-0030_RLatLon0.09_PT005H.grib2 2026-04-30 20:40 193
20260430T18Z_MSC_RDPS_DewPointDepression_IsbL-0050_RLatLon0.09_PT005H.grib2 2026-04-30 20:40 79K
20260430T18Z_MSC_RDPS_DewPointDepression_IsbL-0100_RLatLon0.09_PT005H.grib2 2026-04-30 20:40 129K
20260430T18Z_MSC_RDPS_DewPointDepression_IsbL-0150_RLatLon0.09_PT005H.grib2 2026-04-30 20:40 151K
20260430T18Z_MSC_RDPS_DewPointDepression_IsbL-0175_RLatLon0.09_PT005H.grib2 2026-04-30 20:40 185K
20260430T18Z_MSC_RDPS_DewPointDepression_IsbL-0200_RLatLon0.09_PT005H.grib2 2026-04-30 20:40 224K
20260430T18Z_MSC_RDPS_DewPointDepression_IsbL-0225_RLatLon0.09_PT005H.grib2 2026-04-30 20:40 268K
20260430T18Z_MSC_RDPS_DewPointDepression_IsbL-0250_RLatLon0.09_PT005H.grib2 2026-04-30 20:40 305K
20260430T18Z_MSC_RDPS_DewPointDepression_IsbL-0275_RLatLon0.09_PT005H.grib2 2026-04-30 20:40 309K
20260430T18Z_MSC_RDPS_DewPointDepression_IsbL-0300_RLatLon0.09_PT005H.grib2 2026-04-30 20:40 329K
20260430T18Z_MSC_RDPS_DewPointDepression_IsbL-0350_RLatLon0.09_PT005H.grib2 2026-04-30 20:40 335K
20260430T18Z_MSC_RDPS_DewPointDepression_IsbL-0400_RLatLon0.09_PT005H.grib2 2026-04-30 20:40 344K
20260430T18Z_MSC_RDPS_DewPointDepression_IsbL-0450_RLatLon0.09_PT005H.grib2 2026-04-30 20:40 347K
20260430T18Z_MSC_RDPS_DewPointDepression_IsbL-0500_RLatLon0.09_PT005H.grib2 2026-04-30 20:40 352K
20260430T18Z_MSC_RDPS_DewPointDepression_IsbL-0550_RLatLon0.09_PT005H.grib2 2026-04-30 20:40 364K
20260430T18Z_MSC_RDPS_DewPointDepression_IsbL-0600_RLatLon0.09_PT005H.grib2 2026-04-30 20:40 382K
20260430T18Z_MSC_RDPS_DewPointDepression_IsbL-0650_RLatLon0.09_PT005H.grib2 2026-04-30 20:40 389K
20260430T18Z_MSC_RDPS_DewPointDepression_IsbL-0700_RLatLon0.09_PT005H.grib2 2026-04-30 20:40 399K
20260430T18Z_MSC_RDPS_DewPointDepression_IsbL-0750_RLatLon0.09_PT005H.grib2 2026-04-30 20:40 416K
20260430T18Z_MSC_RDPS_DewPointDepression_IsbL-0800_RLatLon0.09_PT005H.grib2 2026-04-30 20:40 443K
20260430T18Z_MSC_RDPS_DewPointDepression_IsbL-0850_RLatLon0.09_PT005H.grib2 2026-04-30 20:40 464K
20260430T18Z_MSC_RDPS_DewPointDepression_IsbL-0875_RLatLon0.09_PT005H.grib2 2026-04-30 20:40 469K
20260430T18Z_MSC_RDPS_DewPointDepression_IsbL-0900_RLatLon0.09_PT005H.grib2 2026-04-30 20:40 463K
20260430T18Z_MSC_RDPS_DewPointDepression_IsbL-0925_RLatLon0.09_PT005H.grib2 2026-04-30 20:40 451K
20260430T18Z_MSC_RDPS_DewPointDepression_IsbL-0950_RLatLon0.09_PT005H.grib2 2026-04-30 20:40 443K
20260430T18Z_MSC_RDPS_DewPointDepression_IsbL-0970_RLatLon0.09_PT005H.grib2 2026-04-30 20:40 433K
20260430T18Z_MSC_RDPS_DewPointDepression_IsbL-0985_RLatLon0.09_PT005H.grib2 2026-04-30 20:40 428K
20260430T18Z_MSC_RDPS_DewPointDepression_IsbL-1000_RLatLon0.09_PT005H.grib2 2026-04-30 20:40 422K
20260430T18Z_MSC_RDPS_DewPointDepression_IsbL-1015_RLatLon0.09_PT005H.grib2 2026-04-30 20:40 411K
20260430T18Z_MSC_RDPS_DewPoint_AGL-2m_RLatLon0.09_PT005H.grib2 2026-04-30 20:40 307K
20260430T18Z_MSC_RDPS_DownwardLongwaveRadiationFlux-Accum_Sfc_RLatLon0.09_PT005H.grib2 2026-04-30 20:40 470K
20260430T18Z_MSC_RDPS_DownwardShortwaveRadiationFlux-Accum_NTAtm_RLatLon0.09_PT005H.grib2 2026-04-30 20:40 100K
20260430T18Z_MSC_RDPS_DownwardShortwaveRadiationFlux-Accum_Sfc_RLatLon0.09_PT005H.grib2 2026-04-30 20:40 583K
20260430T18Z_MSC_RDPS_FreezingRain-Accum1h_Sfc_RLatLon0.09_PT005H.grib2 2026-04-30 20:40 17K
20260430T18Z_MSC_RDPS_FreezingRain-Accum_Sfc_RLatLon0.09_PT005H.grib2 2026-04-30 20:40 23K
20260430T18Z_MSC_RDPS_GeopotentialHeight_IsbL-0001_RLatLon0.09_PT005H.grib2 2026-04-30 20:40 243K
20260430T18Z_MSC_RDPS_GeopotentialHeight_IsbL-0005_RLatLon0.09_PT005H.grib2 2026-04-30 20:40 336K
20260430T18Z_MSC_RDPS_GeopotentialHeight_IsbL-0010_RLatLon0.09_PT005H.grib2 2026-04-30 20:40 303K
20260430T18Z_MSC_RDPS_GeopotentialHeight_IsbL-0020_RLatLon0.09_PT005H.grib2 2026-04-30 20:40 302K
20260430T18Z_MSC_RDPS_GeopotentialHeight_IsbL-0030_RLatLon0.09_PT005H.grib2 2026-04-30 20:40 304K
20260430T18Z_MSC_RDPS_GeopotentialHeight_IsbL-0050_RLatLon0.09_PT005H.grib2 2026-04-30 20:40 305K
20260430T18Z_MSC_RDPS_GeopotentialHeight_IsbL-0100_RLatLon0.09_PT005H.grib2 2026-04-30 20:40 284K
20260430T18Z_MSC_RDPS_GeopotentialHeight_IsbL-0150_RLatLon0.09_PT005H.grib2 2026-04-30 20:40 228K
20260430T18Z_MSC_RDPS_GeopotentialHeight_IsbL-0175_RLatLon0.09_PT005H.grib2 2026-04-30 20:40 263K
20260430T18Z_MSC_RDPS_GeopotentialHeight_IsbL-0200_RLatLon0.09_PT005H.grib2 2026-04-30 20:40 265K
20260430T18Z_MSC_RDPS_GeopotentialHeight_IsbL-0225_RLatLon0.09_PT005H.grib2 2026-04-30 20:40 268K
20260430T18Z_MSC_RDPS_GeopotentialHeight_IsbL-0250_RLatLon0.09_PT005H.grib2 2026-04-30 20:40 269K
20260430T18Z_MSC_RDPS_GeopotentialHeight_IsbL-0275_RLatLon0.09_PT005H.grib2 2026-04-30 20:40 268K
20260430T18Z_MSC_RDPS_GeopotentialHeight_IsbL-0300_RLatLon0.09_PT005H.grib2 2026-04-30 20:40 237K
20260430T18Z_MSC_RDPS_GeopotentialHeight_IsbL-0350_RLatLon0.09_PT005H.grib2 2026-04-30 20:40 233K
20260430T18Z_MSC_RDPS_GeopotentialHeight_IsbL-0400_RLatLon0.09_PT005H.grib2 2026-04-30 20:40 230K
20260430T18Z_MSC_RDPS_GeopotentialHeight_IsbL-0450_RLatLon0.09_PT005H.grib2 2026-04-30 20:40 298K
20260430T18Z_MSC_RDPS_GeopotentialHeight_IsbL-0500_RLatLon0.09_PT005H.grib2 2026-04-30 20:40 293K
20260430T18Z_MSC_RDPS_GeopotentialHeight_IsbL-0550_RLatLon0.09_PT005H.grib2 2026-04-30 20:40 289K
20260430T18Z_MSC_RDPS_GeopotentialHeight_IsbL-0600_RLatLon0.09_PT005H.grib2 2026-04-30 20:40 259K
20260430T18Z_MSC_RDPS_GeopotentialHeight_IsbL-0650_RLatLon0.09_PT005H.grib2 2026-04-30 20:40 256K
20260430T18Z_MSC_RDPS_GeopotentialHeight_IsbL-0700_RLatLon0.09_PT005H.grib2 2026-04-30 20:40 337K
20260430T18Z_MSC_RDPS_GeopotentialHeight_IsbL-0750_RLatLon0.09_PT005H.grib2 2026-04-30 20:40 339K
20260430T18Z_MSC_RDPS_GeopotentialHeight_IsbL-0800_RLatLon0.09_PT005H.grib2 2026-04-30 20:40 344K
20260430T18Z_MSC_RDPS_GeopotentialHeight_IsbL-0850_RLatLon0.09_PT005H.grib2 2026-04-30 20:40 350K
20260430T18Z_MSC_RDPS_GeopotentialHeight_IsbL-0875_RLatLon0.09_PT005H.grib2 2026-04-30 20:40 351K
20260430T18Z_MSC_RDPS_GeopotentialHeight_IsbL-0900_RLatLon0.09_PT005H.grib2 2026-04-30 20:40 390K
20260430T18Z_MSC_RDPS_GeopotentialHeight_IsbL-0925_RLatLon0.09_PT005H.grib2 2026-04-30 20:40 392K
20260430T18Z_MSC_RDPS_GeopotentialHeight_IsbL-0950_RLatLon0.09_PT005H.grib2 2026-04-30 20:40 397K
20260430T18Z_MSC_RDPS_GeopotentialHeight_IsbL-0970_RLatLon0.09_PT005H.grib2 2026-04-30 20:40 403K
20260430T18Z_MSC_RDPS_GeopotentialHeight_IsbL-0985_RLatLon0.09_PT005H.grib2 2026-04-30 20:40 380K
20260430T18Z_MSC_RDPS_GeopotentialHeight_IsbL-1000_RLatLon0.09_PT005H.grib2 2026-04-30 20:40 391K
20260430T18Z_MSC_RDPS_GeopotentialHeight_IsbL-1015_RLatLon0.09_PT005H.grib2 2026-04-30 20:40 406K
20260430T18Z_MSC_RDPS_Humidex_Sfc_RLatLon0.09_PT005H.grib2 2026-04-30 20:40 2.4M
20260430T18Z_MSC_RDPS_IcePellets-Accum1h_Sfc_RLatLon0.09_PT005H.grib2 2026-04-30 20:40 1.3K
20260430T18Z_MSC_RDPS_IcePellets-Accum_Sfc_RLatLon0.09_PT005H.grib2 2026-04-30 20:40 3.5K
20260430T18Z_MSC_RDPS_KIndex_Sfc_RLatLon0.09_PT005H.grib2 2026-04-30 20:40 2.4M
20260430T18Z_MSC_RDPS_LatentHeatNetFlux_Sfc_RLatLon0.09_PT005H.grib2 2026-04-30 20:40 357K
20260430T18Z_MSC_RDPS_LiftedIndex-MU-VT_IsbL-0500_RLatLon0.09_PT005H.grib2 2026-04-30 20:40 2.4M
20260430T18Z_MSC_RDPS_NetLongwaveRadiationFlux-Accum_Sfc_RLatLon0.09_PT005H.grib2 2026-04-30 20:40 495K
20260430T18Z_MSC_RDPS_NetShortwaveRadiationFlux-Accum_Sfc_RLatLon0.09_PT005H.grib2 2026-04-30 20:40 569K
20260430T18Z_MSC_RDPS_PlanetaryBoundaryLayerHeight_Sfc_RLatLon0.09_PT005H.grib2 2026-04-30 20:40 1.0M
20260430T18Z_MSC_RDPS_Precip-Accum1h_Sfc_RLatLon0.09_PT005H.grib2 2026-04-30 20:40 1.1M
20260430T18Z_MSC_RDPS_Precip-Accum_Sfc_RLatLon0.09_PT005H.grib2 2026-04-30 20:40 1.3M
20260430T18Z_MSC_RDPS_PrecipRate_Sfc_RLatLon0.09_PT005H.grib2 2026-04-30 20:40 173K
20260430T18Z_MSC_RDPS_PrecipType-Instant_Sfc_RLatLon0.09_PT005H.grib2 2026-04-30 20:40 565K
20260430T18Z_MSC_RDPS_Pressure-Trend3h_Sfc_RLatLon0.09_PT005H.grib2 2026-04-30 20:40 1.2M
20260430T18Z_MSC_RDPS_Pressure_MSL_RLatLon0.09_PT005H.grib2 2026-04-30 20:40 325K
20260430T18Z_MSC_RDPS_Pressure_PVU-1.5_RLatLon0.09_PT005H.grib2 2026-04-30 20:40 2.3M
20260430T18Z_MSC_RDPS_Pressure_PVU-1_RLatLon0.09_PT005H.grib2 2026-04-30 20:40 2.4M
20260430T18Z_MSC_RDPS_Pressure_PVU-2_RLatLon0.09_PT005H.grib2 2026-04-30 20:40 2.4M
20260430T18Z_MSC_RDPS_Pressure_Sfc_RLatLon0.09_PT005H.grib2 2026-04-30 20:40 499K
20260430T18Z_MSC_RDPS_RadiativeTemp_Sfc_RLatLon0.09_PT005H.grib2 2026-04-30 20:40 313K
20260430T18Z_MSC_RDPS_Rain-Accum1h_Sfc_RLatLon0.09_PT005H.grib2 2026-04-30 20:40 588K
20260430T18Z_MSC_RDPS_Rain-Accum_Sfc_RLatLon0.09_PT005H.grib2 2026-04-30 20:40 964K
20260430T18Z_MSC_RDPS_RelativeHumidity_AGL-2m_RLatLon0.09_PT005H.grib2 2026-04-30 20:40 1.0M
20260430T18Z_MSC_RDPS_RelativeHumidity_IsbL-0010_RLatLon0.09_PT005H.grib2 2026-04-30 20:40 628K
20260430T18Z_MSC_RDPS_RelativeHumidity_IsbL-0020_RLatLon0.09_PT005H.grib2 2026-04-30 20:40 677K
20260430T18Z_MSC_RDPS_RelativeHumidity_IsbL-0030_RLatLon0.09_PT005H.grib2 2026-04-30 20:40 597K
20260430T18Z_MSC_RDPS_RelativeHumidity_IsbL-0050_RLatLon0.09_PT005H.grib2 2026-04-30 20:40 311K
20260430T18Z_MSC_RDPS_RelativeHumidity_IsbL-0100_RLatLon0.09_PT005H.grib2 2026-04-30 20:40 283K
20260430T18Z_MSC_RDPS_RelativeHumidity_IsbL-0150_RLatLon0.09_PT005H.grib2 2026-04-30 20:40 408K
20260430T18Z_MSC_RDPS_RelativeHumidity_IsbL-0175_RLatLon0.09_PT005H.grib2 2026-04-30 20:40 481K
20260430T18Z_MSC_RDPS_RelativeHumidity_IsbL-0200_RLatLon0.09_PT005H.grib2 2026-04-30 20:40 563K
20260430T18Z_MSC_RDPS_RelativeHumidity_IsbL-0225_RLatLon0.09_PT005H.grib2 2026-04-30 20:40 635K
20260430T18Z_MSC_RDPS_RelativeHumidity_IsbL-0250_RLatLon0.09_PT005H.grib2 2026-04-30 20:40 703K
20260430T18Z_MSC_RDPS_RelativeHumidity_IsbL-0275_RLatLon0.09_PT005H.grib2 2026-04-30 20:40 726K
20260430T18Z_MSC_RDPS_RelativeHumidity_IsbL-0300_RLatLon0.09_PT005H.grib2 2026-04-30 20:40 769K
20260430T18Z_MSC_RDPS_RelativeHumidity_IsbL-0350_RLatLon0.09_PT005H.grib2 2026-04-30 20:40 787K
20260430T18Z_MSC_RDPS_RelativeHumidity_IsbL-0400_RLatLon0.09_PT005H.grib2 2026-04-30 20:40 795K
20260430T18Z_MSC_RDPS_RelativeHumidity_IsbL-0450_RLatLon0.09_PT005H.grib2 2026-04-30 20:40 797K
20260430T18Z_MSC_RDPS_RelativeHumidity_IsbL-0500_RLatLon0.09_PT005H.grib2 2026-04-30 20:40 810K
20260430T18Z_MSC_RDPS_RelativeHumidity_IsbL-0550_RLatLon0.09_PT005H.grib2 2026-04-30 20:40 830K
20260430T18Z_MSC_RDPS_RelativeHumidity_IsbL-0600_RLatLon0.09_PT005H.grib2 2026-04-30 20:40 861K
20260430T18Z_MSC_RDPS_RelativeHumidity_IsbL-0650_RLatLon0.09_PT005H.grib2 2026-04-30 20:40 880K
20260430T18Z_MSC_RDPS_RelativeHumidity_IsbL-0700_RLatLon0.09_PT005H.grib2 2026-04-30 20:40 901K
20260430T18Z_MSC_RDPS_RelativeHumidity_IsbL-0750_RLatLon0.09_PT005H.grib2 2026-04-30 20:40 938K
20260430T18Z_MSC_RDPS_RelativeHumidity_IsbL-0800_RLatLon0.09_PT005H.grib2 2026-04-30 20:40 1.0M
20260430T18Z_MSC_RDPS_RelativeHumidity_IsbL-0850_RLatLon0.09_PT005H.grib2 2026-04-30 20:40 1.0M
20260430T18Z_MSC_RDPS_RelativeHumidity_IsbL-0875_RLatLon0.09_PT005H.grib2 2026-04-30 20:40 1.0M
20260430T18Z_MSC_RDPS_RelativeHumidity_IsbL-0900_RLatLon0.09_PT005H.grib2 2026-04-30 20:40 1.1M
20260430T18Z_MSC_RDPS_RelativeHumidity_IsbL-0925_RLatLon0.09_PT005H.grib2 2026-04-30 20:40 1.1M
20260430T18Z_MSC_RDPS_RelativeHumidity_IsbL-0950_RLatLon0.09_PT005H.grib2 2026-04-30 20:40 1.1M
20260430T18Z_MSC_RDPS_RelativeHumidity_IsbL-0970_RLatLon0.09_PT005H.grib2 2026-04-30 20:40 1.0M
20260430T18Z_MSC_RDPS_RelativeHumidity_IsbL-0985_RLatLon0.09_PT005H.grib2 2026-04-30 20:40 1.0M
20260430T18Z_MSC_RDPS_RelativeHumidity_IsbL-1000_RLatLon0.09_PT005H.grib2 2026-04-30 20:40 1.0M
20260430T18Z_MSC_RDPS_RelativeHumidity_IsbL-1015_RLatLon0.09_PT005H.grib2 2026-04-30 20:40 1.0M
20260430T18Z_MSC_RDPS_Runoff-Accum_Sfc_RLatLon0.09_PT005H.grib2 2026-04-30 20:40 58K
20260430T18Z_MSC_RDPS_SWEATIndex_Sfc_RLatLon0.09_PT005H.grib2 2026-04-30 20:40 2.4M
20260430T18Z_MSC_RDPS_SeeingIndex_EAtm_RLatLon0.09_PT005H.grib2 2026-04-30 20:40 1.0M
20260430T18Z_MSC_RDPS_SensibleHeatNetFlux_Sfc_RLatLon0.09_PT005H.grib2 2026-04-30 20:40 322K
20260430T18Z_MSC_RDPS_ShowalterIndex_IsbL-0500_RLatLon0.09_PT005H.grib2 2026-04-30 20:40 2.6M
20260430T18Z_MSC_RDPS_SkyTransparencyIndex_EAtm_RLatLon0.09_PT005H.grib2 2026-04-30 20:40 703K
20260430T18Z_MSC_RDPS_Snow-Accum1h_Sfc_RLatLon0.09_PT005H.grib2 2026-04-30 20:40 485K
20260430T18Z_MSC_RDPS_Snow-Accum_Sfc_RLatLon0.09_PT005H.grib2 2026-04-30 20:40 584K
20260430T18Z_MSC_RDPS_SnowDensity_Sfc_RLatLon0.09_PT005H.grib2 2026-04-30 20:40 167K
20260430T18Z_MSC_RDPS_SnowDepth_Sfc_RLatLon0.09_PT005H.grib2 2026-04-30 20:40 667K
20260430T18Z_MSC_RDPS_SoilTemp_DBS-0to10cm_RLatLon0.09_PT005H.grib2 2026-04-30 20:40 204K
20260430T18Z_MSC_RDPS_SoilTemp_Sfc_RLatLon0.09_PT005H.grib2 2026-04-30 20:40 285K
20260430T18Z_MSC_RDPS_SoilVolumetricIceContent_Sfc_RLatLon0.09_PT005H.grib2 2026-04-30 20:40 163K
20260430T18Z_MSC_RDPS_SoilVolumetricWaterContent_DBS-0to10cm_RLatLon0.09_PT005H.grib2 2026-04-30 20:40 268K
20260430T18Z_MSC_RDPS_SoilVolumetricWaterContent_DBS-0to1cm_RLatLon0.09_PT005H.grib2 2026-04-30 20:40 331K
20260430T18Z_MSC_RDPS_SpecificHumidity_AGL-120m_RLatLon0.09_PT005H.grib2 2026-04-30 20:40 485K
20260430T18Z_MSC_RDPS_SpecificHumidity_AGL-2m_RLatLon0.09_PT005H.grib2 2026-04-30 20:40 652K
20260430T18Z_MSC_RDPS_SpecificHumidity_AGL-40m_RLatLon0.09_PT005H.grib2 2026-04-30 20:40 490K
20260430T18Z_MSC_RDPS_SpecificHumidity_AGL-80m_RLatLon0.09_PT005H.grib2 2026-04-30 20:40 486K
20260430T18Z_MSC_RDPS_SpecificHumidity_IsbL-0001_RLatLon0.09_PT005H.grib2 2026-04-30 20:40 397K
20260430T18Z_MSC_RDPS_SpecificHumidity_IsbL-0005_RLatLon0.09_PT005H.grib2 2026-04-30 20:40 357K
20260430T18Z_MSC_RDPS_SpecificHumidity_IsbL-0010_RLatLon0.09_PT005H.grib2 2026-04-30 20:40 391K
20260430T18Z_MSC_RDPS_SpecificHumidity_IsbL-0020_RLatLon0.09_PT005H.grib2 2026-04-30 20:40 382K
20260430T18Z_MSC_RDPS_SpecificHumidity_IsbL-0030_RLatLon0.09_PT005H.grib2 2026-04-30 20:40 369K
20260430T18Z_MSC_RDPS_SpecificHumidity_IsbL-0050_RLatLon0.09_PT005H.grib2 2026-04-30 20:40 456K
20260430T18Z_MSC_RDPS_SpecificHumidity_IsbL-0100_RLatLon0.09_PT005H.grib2 2026-04-30 20:40 449K
20260430T18Z_MSC_RDPS_SpecificHumidity_IsbL-0150_RLatLon0.09_PT005H.grib2 2026-04-30 20:40 454K
20260430T18Z_MSC_RDPS_SpecificHumidity_IsbL-0175_RLatLon0.09_PT005H.grib2 2026-04-30 20:40 541K
20260430T18Z_MSC_RDPS_SpecificHumidity_IsbL-0200_RLatLon0.09_PT005H.grib2 2026-04-30 20:40 458K
20260430T18Z_MSC_RDPS_SpecificHumidity_IsbL-0225_RLatLon0.09_PT005H.grib2 2026-04-30 20:40 464K
20260430T18Z_MSC_RDPS_SpecificHumidity_IsbL-0250_RLatLon0.09_PT005H.grib2 2026-04-30 20:40 525K
20260430T18Z_MSC_RDPS_SpecificHumidity_IsbL-0275_RLatLon0.09_PT005H.grib2 2026-04-30 20:40 483K
20260430T18Z_MSC_RDPS_SpecificHumidity_IsbL-0300_RLatLon0.09_PT005H.grib2 2026-04-30 20:40 458K
20260430T18Z_MSC_RDPS_SpecificHumidity_IsbL-0350_RLatLon0.09_PT005H.grib2 2026-04-30 20:40 449K
20260430T18Z_MSC_RDPS_SpecificHumidity_IsbL-0400_RLatLon0.09_PT005H.grib2 2026-04-30 20:40 526K
20260430T18Z_MSC_RDPS_SpecificHumidity_IsbL-0450_RLatLon0.09_PT005H.grib2 2026-04-30 20:40 575K
20260430T18Z_MSC_RDPS_SpecificHumidity_IsbL-0500_RLatLon0.09_PT005H.grib2 2026-04-30 20:40 508K
20260430T18Z_MSC_RDPS_SpecificHumidity_IsbL-0550_RLatLon0.09_PT005H.grib2 2026-04-30 20:40 584K
20260430T18Z_MSC_RDPS_SpecificHumidity_IsbL-0600_RLatLon0.09_PT005H.grib2 2026-04-30 20:40 643K
20260430T18Z_MSC_RDPS_SpecificHumidity_IsbL-0650_RLatLon0.09_PT005H.grib2 2026-04-30 20:40 564K
20260430T18Z_MSC_RDPS_SpecificHumidity_IsbL-0700_RLatLon0.09_PT005H.grib2 2026-04-30 20:40 605K
20260430T18Z_MSC_RDPS_SpecificHumidity_IsbL-0750_RLatLon0.09_PT005H.grib2 2026-04-30 20:40 670K
20260430T18Z_MSC_RDPS_SpecificHumidity_IsbL-0800_RLatLon0.09_PT005H.grib2 2026-04-30 20:40 734K
20260430T18Z_MSC_RDPS_SpecificHumidity_IsbL-0850_RLatLon0.09_PT005H.grib2 2026-04-30 20:40 798K
20260430T18Z_MSC_RDPS_SpecificHumidity_IsbL-0875_RLatLon0.09_PT005H.grib2 2026-04-30 20:40 825K
20260430T18Z_MSC_RDPS_SpecificHumidity_IsbL-0900_RLatLon0.09_PT005H.grib2 2026-04-30 20:40 701K
20260430T18Z_MSC_RDPS_SpecificHumidity_IsbL-0925_RLatLon0.09_PT005H.grib2 2026-04-30 20:40 704K
20260430T18Z_MSC_RDPS_SpecificHumidity_IsbL-0950_RLatLon0.09_PT005H.grib2 2026-04-30 20:40 703K
20260430T18Z_MSC_RDPS_SpecificHumidity_IsbL-0970_RLatLon0.09_PT005H.grib2 2026-04-30 20:40 691K
20260430T18Z_MSC_RDPS_SpecificHumidity_IsbL-0985_RLatLon0.09_PT005H.grib2 2026-04-30 20:40 681K
20260430T18Z_MSC_RDPS_SpecificHumidity_IsbL-1000_RLatLon0.09_PT005H.grib2 2026-04-30 20:40 673K
20260430T18Z_MSC_RDPS_SpecificHumidity_IsbL-1015_RLatLon0.09_PT005H.grib2 2026-04-30 20:40 662K
20260430T18Z_MSC_RDPS_SpecificHumidity_Sfc_RLatLon0.09_PT005H.grib2 2026-04-30 20:40 331K
20260430T18Z_MSC_RDPS_StormRelativeHelicity_EtaL-10000_RLatLon0.09_PT005H.grib2 2026-04-30 20:40 1.1M
20260430T18Z_MSC_RDPS_StormSeverityIndex_EtaL-10000_RLatLon0.09_PT005H.grib2 2026-04-30 20:40 1.2M
20260430T18Z_MSC_RDPS_Thickness_IsbL-0850to0700_RLatLon0.09_PT005H.grib2 2026-04-30 20:40 196K
20260430T18Z_MSC_RDPS_Thickness_IsbL-1000to0500_RLatLon0.09_PT005H.grib2 2026-04-30 20:40 138K
20260430T18Z_MSC_RDPS_Thickness_IsbL-1000to0850_RLatLon0.09_PT005H.grib2 2026-04-30 20:40 186K
20260430T18Z_MSC_RDPS_TotalCloudCover_Sfc_RLatLon0.09_PT005H.grib2 2026-04-30 20:40 654K
20260430T18Z_MSC_RDPS_TotalTotalsIndex_Sfc_RLatLon0.09_PT005H.grib2 2026-04-30 20:40 2.4M
20260430T18Z_MSC_RDPS_UVIndex-ClearSky_Sfc_RLatLon0.09_PT005H.grib2 2026-04-30 20:40 199K
20260430T18Z_MSC_RDPS_UVIndex_Sfc_RLatLon0.09_PT005H.grib2 2026-04-30 20:40 438K
20260430T18Z_MSC_RDPS_UpwardLongwaveRadiationFlux_NTAtm_RLatLon0.09_PT005H.grib2 2026-04-30 20:40 388K
20260430T18Z_MSC_RDPS_UpwardShortwaveRadiationFlux_NTAtm_RLatLon0.09_PT005H.grib2 2026-04-30 20:40 394K
20260430T18Z_MSC_RDPS_VerticalVelocity_IsbL-0250_RLatLon0.09_PT005H.grib2 2026-04-30 20:40 557K
20260430T18Z_MSC_RDPS_VerticalVelocity_IsbL-0500_RLatLon0.09_PT005H.grib2 2026-04-30 20:40 546K
20260430T18Z_MSC_RDPS_VerticalVelocity_IsbL-0700_RLatLon0.09_PT005H.grib2 2026-04-30 20:40 601K
20260430T18Z_MSC_RDPS_VerticalVelocity_IsbL-0850_RLatLon0.09_PT005H.grib2 2026-04-30 20:40 691K
20260430T18Z_MSC_RDPS_VerticalWindShear_EtaL-6500_RLatLon0.09_PT005H.grib2 2026-04-30 20:40 1.2M
20260430T18Z_MSC_RDPS_WindChill_Sfc_RLatLon0.09_PT005H.grib2 2026-04-30 20:40 1.1M
20260430T18Z_MSC_RDPS_WindDir_AGL-10m_RLatLon0.09_PT005H.grib2 2026-04-30 20:40 963K
20260430T18Z_MSC_RDPS_WindDir_AGL-120m_RLatLon0.09_PT005H.grib2 2026-04-30 20:40 611K
20260430T18Z_MSC_RDPS_WindDir_AGL-40m_RLatLon0.09_PT005H.grib2 2026-04-30 20:40 633K
20260430T18Z_MSC_RDPS_WindDir_AGL-80m_RLatLon0.09_PT005H.grib2 2026-04-30 20:40 620K
20260430T18Z_MSC_RDPS_WindDir_IsbL-0001_RLatLon0.09_PT005H.grib2 2026-04-30 20:40 297K
20260430T18Z_MSC_RDPS_WindDir_IsbL-0005_RLatLon0.09_PT005H.grib2 2026-04-30 20:40 354K
20260430T18Z_MSC_RDPS_WindDir_IsbL-0010_RLatLon0.09_PT005H.grib2 2026-04-30 20:40 365K
20260430T18Z_MSC_RDPS_WindDir_IsbL-0020_RLatLon0.09_PT005H.grib2 2026-04-30 20:40 405K
20260430T18Z_MSC_RDPS_WindDir_IsbL-0030_RLatLon0.09_PT005H.grib2 2026-04-30 20:40 393K
20260430T18Z_MSC_RDPS_WindDir_IsbL-0050_RLatLon0.09_PT005H.grib2 2026-04-30 20:40 402K
20260430T18Z_MSC_RDPS_WindDir_IsbL-0100_RLatLon0.09_PT005H.grib2 2026-04-30 20:40 420K
20260430T18Z_MSC_RDPS_WindDir_IsbL-0150_RLatLon0.09_PT005H.grib2 2026-04-30 20:40 430K
20260430T18Z_MSC_RDPS_WindDir_IsbL-0175_RLatLon0.09_PT005H.grib2 2026-04-30 20:40 444K
20260430T18Z_MSC_RDPS_WindDir_IsbL-0200_RLatLon0.09_PT005H.grib2 2026-04-30 20:40 457K
20260430T18Z_MSC_RDPS_WindDir_IsbL-0225_RLatLon0.09_PT005H.grib2 2026-04-30 20:40 462K
20260430T18Z_MSC_RDPS_WindDir_IsbL-0250_RLatLon0.09_PT005H.grib2 2026-04-30 20:40 460K
20260430T18Z_MSC_RDPS_WindDir_IsbL-0275_RLatLon0.09_PT005H.grib2 2026-04-30 20:40 482K
20260430T18Z_MSC_RDPS_WindDir_IsbL-0300_RLatLon0.09_PT005H.grib2 2026-04-30 20:40 483K
20260430T18Z_MSC_RDPS_WindDir_IsbL-0350_RLatLon0.09_PT005H.grib2 2026-04-30 20:40 498K
20260430T18Z_MSC_RDPS_WindDir_IsbL-0400_RLatLon0.09_PT005H.grib2 2026-04-30 20:40 509K
20260430T18Z_MSC_RDPS_WindDir_IsbL-0450_RLatLon0.09_PT005H.grib2 2026-04-30 20:40 519K
20260430T18Z_MSC_RDPS_WindDir_IsbL-0500_RLatLon0.09_PT005H.grib2 2026-04-30 20:40 539K
20260430T18Z_MSC_RDPS_WindDir_IsbL-0550_RLatLon0.09_PT005H.grib2 2026-04-30 20:40 560K
20260430T18Z_MSC_RDPS_WindDir_IsbL-0600_RLatLon0.09_PT005H.grib2 2026-04-30 20:40 597K
20260430T18Z_MSC_RDPS_WindDir_IsbL-0650_RLatLon0.09_PT005H.grib2 2026-04-30 20:40 649K
20260430T18Z_MSC_RDPS_WindDir_IsbL-0700_RLatLon0.09_PT005H.grib2 2026-04-30 20:40 699K
20260430T18Z_MSC_RDPS_WindDir_IsbL-0750_RLatLon0.09_PT005H.grib2 2026-04-30 20:40 747K
20260430T18Z_MSC_RDPS_WindDir_IsbL-0800_RLatLon0.09_PT005H.grib2 2026-04-30 20:40 803K
20260430T18Z_MSC_RDPS_WindDir_IsbL-0850_RLatLon0.09_PT005H.grib2 2026-04-30 20:40 863K
20260430T18Z_MSC_RDPS_WindDir_IsbL-0875_RLatLon0.09_PT005H.grib2 2026-04-30 20:40 886K
20260430T18Z_MSC_RDPS_WindDir_IsbL-0900_RLatLon0.09_PT005H.grib2 2026-04-30 20:40 906K
20260430T18Z_MSC_RDPS_WindDir_IsbL-0925_RLatLon0.09_PT005H.grib2 2026-04-30 20:40 916K
20260430T18Z_MSC_RDPS_WindDir_IsbL-0950_RLatLon0.09_PT005H.grib2 2026-04-30 20:40 917K
20260430T18Z_MSC_RDPS_WindDir_IsbL-0970_RLatLon0.09_PT005H.grib2 2026-04-30 20:40 921K
20260430T18Z_MSC_RDPS_WindDir_IsbL-0985_RLatLon0.09_PT005H.grib2 2026-04-30 20:40 930K
20260430T18Z_MSC_RDPS_WindDir_IsbL-1000_RLatLon0.09_PT005H.grib2 2026-04-30 20:40 943K
20260430T18Z_MSC_RDPS_WindDir_IsbL-1015_RLatLon0.09_PT005H.grib2 2026-04-30 20:40 956K
20260430T18Z_MSC_RDPS_WindGust-Max_AGL-10m_RLatLon0.09_PT005H.grib2 2026-04-30 20:40 1.0M
20260430T18Z_MSC_RDPS_WindGust-Min_AGL-10m_RLatLon0.09_PT005H.grib2 2026-04-30 20:40 960K
20260430T18Z_MSC_RDPS_WindGust_AGL-10m_RLatLon0.09_PT005H.grib2 2026-04-30 20:40 969K
20260430T18Z_MSC_RDPS_WindSpeed_AGL-10m_RLatLon0.09_PT005H.grib2 2026-04-30 20:40 826K
20260430T18Z_MSC_RDPS_WindSpeed_AGL-120m_RLatLon0.09_PT005H.grib2 2026-04-30 20:40 527K
20260430T18Z_MSC_RDPS_WindSpeed_AGL-40m_RLatLon0.09_PT005H.grib2 2026-04-30 20:40 530K
20260430T18Z_MSC_RDPS_WindSpeed_AGL-80m_RLatLon0.09_PT005H.grib2 2026-04-30 20:40 528K
20260430T18Z_MSC_RDPS_WindSpeed_IsbL-0001_RLatLon0.09_PT005H.grib2 2026-04-30 20:40 247K
20260430T18Z_MSC_RDPS_WindSpeed_IsbL-0005_RLatLon0.09_PT005H.grib2 2026-04-30 20:40 284K
20260430T18Z_MSC_RDPS_WindSpeed_IsbL-0010_RLatLon0.09_PT005H.grib2 2026-04-30 20:40 383K
20260430T18Z_MSC_RDPS_WindSpeed_IsbL-0020_RLatLon0.09_PT005H.grib2 2026-04-30 20:40 310K
20260430T18Z_MSC_RDPS_WindSpeed_IsbL-0030_RLatLon0.09_PT005H.grib2 2026-04-30 20:40 312K
20260430T18Z_MSC_RDPS_WindSpeed_IsbL-0050_RLatLon0.09_PT005H.grib2 2026-04-30 20:40 334K
20260430T18Z_MSC_RDPS_WindSpeed_IsbL-0100_RLatLon0.09_PT005H.grib2 2026-04-30 20:40 467K
20260430T18Z_MSC_RDPS_WindSpeed_IsbL-0150_RLatLon0.09_PT005H.grib2 2026-04-30 20:40 382K
20260430T18Z_MSC_RDPS_WindSpeed_IsbL-0175_RLatLon0.09_PT005H.grib2 2026-04-30 20:40 429K
20260430T18Z_MSC_RDPS_WindSpeed_IsbL-0200_RLatLon0.09_PT005H.grib2 2026-04-30 20:40 446K
20260430T18Z_MSC_RDPS_WindSpeed_IsbL-0225_RLatLon0.09_PT005H.grib2 2026-04-30 20:40 454K
20260430T18Z_MSC_RDPS_WindSpeed_IsbL-0250_RLatLon0.09_PT005H.grib2 2026-04-30 20:40 457K
20260430T18Z_MSC_RDPS_WindSpeed_IsbL-0275_RLatLon0.09_PT005H.grib2 2026-04-30 20:40 474K
20260430T18Z_MSC_RDPS_WindSpeed_IsbL-0300_RLatLon0.09_PT005H.grib2 2026-04-30 20:40 471K
20260430T18Z_MSC_RDPS_WindSpeed_IsbL-0350_RLatLon0.09_PT005H.grib2 2026-04-30 20:40 482K
20260430T18Z_MSC_RDPS_WindSpeed_IsbL-0400_RLatLon0.09_PT005H.grib2 2026-04-30 20:40 483K
20260430T18Z_MSC_RDPS_WindSpeed_IsbL-0450_RLatLon0.09_PT005H.grib2 2026-04-30 20:40 483K
20260430T18Z_MSC_RDPS_WindSpeed_IsbL-0500_RLatLon0.09_PT005H.grib2 2026-04-30 20:40 483K
20260430T18Z_MSC_RDPS_WindSpeed_IsbL-0550_RLatLon0.09_PT005H.grib2 2026-04-30 20:40 468K
20260430T18Z_MSC_RDPS_WindSpeed_IsbL-0600_RLatLon0.09_PT005H.grib2 2026-04-30 20:40 478K
20260430T18Z_MSC_RDPS_WindSpeed_IsbL-0650_RLatLon0.09_PT005H.grib2 2026-04-30 20:40 499K
20260430T18Z_MSC_RDPS_WindSpeed_IsbL-0700_RLatLon0.09_PT005H.grib2 2026-04-30 20:40 646K
20260430T18Z_MSC_RDPS_WindSpeed_IsbL-0750_RLatLon0.09_PT005H.grib2 2026-04-30 20:40 719K
20260430T18Z_MSC_RDPS_WindSpeed_IsbL-0800_RLatLon0.09_PT005H.grib2 2026-04-30 20:40 759K
20260430T18Z_MSC_RDPS_WindSpeed_IsbL-0850_RLatLon0.09_PT005H.grib2 2026-04-30 20:40 808K
20260430T18Z_MSC_RDPS_WindSpeed_IsbL-0875_RLatLon0.09_PT005H.grib2 2026-04-30 20:40 826K
20260430T18Z_MSC_RDPS_WindSpeed_IsbL-0900_RLatLon0.09_PT005H.grib2 2026-04-30 20:40 841K
20260430T18Z_MSC_RDPS_WindSpeed_IsbL-0925_RLatLon0.09_PT005H.grib2 2026-04-30 20:40 850K
20260430T18Z_MSC_RDPS_WindSpeed_IsbL-0950_RLatLon0.09_PT005H.grib2 2026-04-30 20:40 849K
20260430T18Z_MSC_RDPS_WindSpeed_IsbL-0970_RLatLon0.09_PT005H.grib2 2026-04-30 20:40 849K
20260430T18Z_MSC_RDPS_WindSpeed_IsbL-0985_RLatLon0.09_PT005H.grib2 2026-04-30 20:40 844K
20260430T18Z_MSC_RDPS_WindSpeed_IsbL-1000_RLatLon0.09_PT005H.grib2 2026-04-30 20:40 838K
20260430T18Z_MSC_RDPS_WindSpeed_IsbL-1015_RLatLon0.09_PT005H.grib2 2026-04-30 20:40 828K
20260430T18Z_MSC_RDPS_WindU_AGL-10m_RLatLon0.09_PT005H.grib2 2026-04-30 20:40 428K
20260430T18Z_MSC_RDPS_WindU_AGL-120m_RLatLon0.09_PT005H.grib2 2026-04-30 20:40 529K
20260430T18Z_MSC_RDPS_WindU_AGL-40m_RLatLon0.09_PT005H.grib2 2026-04-30 20:40 531K
20260430T18Z_MSC_RDPS_WindU_AGL-80m_RLatLon0.09_PT005H.grib2 2026-04-30 20:40 530K
20260430T18Z_MSC_RDPS_WindU_IsbL-0001_RLatLon0.09_PT005H.grib2 2026-04-30 20:40 238K
20260430T18Z_MSC_RDPS_WindU_IsbL-0005_RLatLon0.09_PT005H.grib2 2026-04-30 20:40 276K
20260430T18Z_MSC_RDPS_WindU_IsbL-0010_RLatLon0.09_PT005H.grib2 2026-04-30 20:40 285K
20260430T18Z_MSC_RDPS_WindU_IsbL-0020_RLatLon0.09_PT005H.grib2 2026-04-30 20:40 299K
20260430T18Z_MSC_RDPS_WindU_IsbL-0030_RLatLon0.09_PT005H.grib2 2026-04-30 20:40 302K
20260430T18Z_MSC_RDPS_WindU_IsbL-0050_RLatLon0.09_PT005H.grib2 2026-04-30 20:40 365K
20260430T18Z_MSC_RDPS_WindU_IsbL-0100_RLatLon0.09_PT005H.grib2 2026-04-30 20:40 423K
20260430T18Z_MSC_RDPS_WindU_IsbL-0150_RLatLon0.09_PT005H.grib2 2026-04-30 20:40 399K
20260430T18Z_MSC_RDPS_WindU_IsbL-0175_RLatLon0.09_PT005H.grib2 2026-04-30 20:40 423K
20260430T18Z_MSC_RDPS_WindU_IsbL-0200_RLatLon0.09_PT005H.grib2 2026-04-30 20:40 341K
20260430T18Z_MSC_RDPS_WindU_IsbL-0225_RLatLon0.09_PT005H.grib2 2026-04-30 20:40 346K
20260430T18Z_MSC_RDPS_WindU_IsbL-0250_RLatLon0.09_PT005H.grib2 2026-04-30 20:40 348K
20260430T18Z_MSC_RDPS_WindU_IsbL-0275_RLatLon0.09_PT005H.grib2 2026-04-30 20:40 363K
20260430T18Z_MSC_RDPS_WindU_IsbL-0300_RLatLon0.09_PT005H.grib2 2026-04-30 20:40 359K
20260430T18Z_MSC_RDPS_WindU_IsbL-0350_RLatLon0.09_PT005H.grib2 2026-04-30 20:40 366K
20260430T18Z_MSC_RDPS_WindU_IsbL-0400_RLatLon0.09_PT005H.grib2 2026-04-30 20:40 368K
20260430T18Z_MSC_RDPS_WindU_IsbL-0450_RLatLon0.09_PT005H.grib2 2026-04-30 20:40 470K
20260430T18Z_MSC_RDPS_WindU_IsbL-0500_RLatLon0.09_PT005H.grib2 2026-04-30 20:40 472K
20260430T18Z_MSC_RDPS_WindU_IsbL-0550_RLatLon0.09_PT005H.grib2 2026-04-30 20:40 474K
20260430T18Z_MSC_RDPS_WindU_IsbL-0600_RLatLon0.09_PT005H.grib2 2026-04-30 20:40 484K
20260430T18Z_MSC_RDPS_WindU_IsbL-0650_RLatLon0.09_PT005H.grib2 2026-04-30 20:40 489K
20260430T18Z_MSC_RDPS_WindU_IsbL-0700_RLatLon0.09_PT005H.grib2 2026-04-30 20:40 513K
20260430T18Z_MSC_RDPS_WindU_IsbL-0750_RLatLon0.09_PT005H.grib2 2026-04-30 20:40 539K
20260430T18Z_MSC_RDPS_WindU_IsbL-0800_RLatLon0.09_PT005H.grib2 2026-04-30 20:40 574K
20260430T18Z_MSC_RDPS_WindU_IsbL-0850_RLatLon0.09_PT005H.grib2 2026-04-30 20:40 617K
20260430T18Z_MSC_RDPS_WindU_IsbL-0875_RLatLon0.09_PT005H.grib2 2026-04-30 20:40 632K
20260430T18Z_MSC_RDPS_WindU_IsbL-0900_RLatLon0.09_PT005H.grib2 2026-04-30 20:40 644K
20260430T18Z_MSC_RDPS_WindU_IsbL-0925_RLatLon0.09_PT005H.grib2 2026-04-30 20:40 650K
20260430T18Z_MSC_RDPS_WindU_IsbL-0950_RLatLon0.09_PT005H.grib2 2026-04-30 20:40 789K
20260430T18Z_MSC_RDPS_WindU_IsbL-0970_RLatLon0.09_PT005H.grib2 2026-04-30 20:40 788K
20260430T18Z_MSC_RDPS_WindU_IsbL-0985_RLatLon0.09_PT005H.grib2 2026-04-30 20:40 785K
20260430T18Z_MSC_RDPS_WindU_IsbL-1000_RLatLon0.09_PT005H.grib2 2026-04-30 20:40 780K
20260430T18Z_MSC_RDPS_WindU_IsbL-1015_RLatLon0.09_PT005H.grib2 2026-04-30 20:40 819K
20260430T18Z_MSC_RDPS_WindV_AGL-10m_RLatLon0.09_PT005H.grib2 2026-04-30 20:40 425K
20260430T18Z_MSC_RDPS_WindV_AGL-120m_RLatLon0.09_PT005H.grib2 2026-04-30 20:40 524K
20260430T18Z_MSC_RDPS_WindV_AGL-40m_RLatLon0.09_PT005H.grib2 2026-04-30 20:40 526K
20260430T18Z_MSC_RDPS_WindV_AGL-80m_RLatLon0.09_PT005H.grib2 2026-04-30 20:40 525K
20260430T18Z_MSC_RDPS_WindV_IsbL-0001_RLatLon0.09_PT005H.grib2 2026-04-30 20:40 240K
20260430T18Z_MSC_RDPS_WindV_IsbL-0005_RLatLon0.09_PT005H.grib2 2026-04-30 20:40 277K
20260430T18Z_MSC_RDPS_WindV_IsbL-0010_RLatLon0.09_PT005H.grib2 2026-04-30 20:40 287K
20260430T18Z_MSC_RDPS_WindV_IsbL-0020_RLatLon0.09_PT005H.grib2 2026-04-30 20:40 301K
20260430T18Z_MSC_RDPS_WindV_IsbL-0030_RLatLon0.09_PT005H.grib2 2026-04-30 20:40 305K
20260430T18Z_MSC_RDPS_WindV_IsbL-0050_RLatLon0.09_PT005H.grib2 2026-04-30 20:40 328K
20260430T18Z_MSC_RDPS_WindV_IsbL-0100_RLatLon0.09_PT005H.grib2 2026-04-30 20:40 418K
20260430T18Z_MSC_RDPS_WindV_IsbL-0150_RLatLon0.09_PT005H.grib2 2026-04-30 20:40 395K
20260430T18Z_MSC_RDPS_WindV_IsbL-0175_RLatLon0.09_PT005H.grib2 2026-04-30 20:40 419K
20260430T18Z_MSC_RDPS_WindV_IsbL-0200_RLatLon0.09_PT005H.grib2 2026-04-30 20:40 435K
20260430T18Z_MSC_RDPS_WindV_IsbL-0225_RLatLon0.09_PT005H.grib2 2026-04-30 20:40 442K
20260430T18Z_MSC_RDPS_WindV_IsbL-0250_RLatLon0.09_PT005H.grib2 2026-04-30 20:40 443K
20260430T18Z_MSC_RDPS_WindV_IsbL-0275_RLatLon0.09_PT005H.grib2 2026-04-30 20:40 360K
20260430T18Z_MSC_RDPS_WindV_IsbL-0300_RLatLon0.09_PT005H.grib2 2026-04-30 20:40 355K
20260430T18Z_MSC_RDPS_WindV_IsbL-0350_RLatLon0.09_PT005H.grib2 2026-04-30 20:40 364K
20260430T18Z_MSC_RDPS_WindV_IsbL-0400_RLatLon0.09_PT005H.grib2 2026-04-30 20:40 467K
20260430T18Z_MSC_RDPS_WindV_IsbL-0450_RLatLon0.09_PT005H.grib2 2026-04-30 20:40 466K
20260430T18Z_MSC_RDPS_WindV_IsbL-0500_RLatLon0.09_PT005H.grib2 2026-04-30 20:40 469K
20260430T18Z_MSC_RDPS_WindV_IsbL-0550_RLatLon0.09_PT005H.grib2 2026-04-30 20:40 471K
20260430T18Z_MSC_RDPS_WindV_IsbL-0600_RLatLon0.09_PT005H.grib2 2026-04-30 20:40 464K
20260430T18Z_MSC_RDPS_WindV_IsbL-0650_RLatLon0.09_PT005H.grib2 2026-04-30 20:40 486K
20260430T18Z_MSC_RDPS_WindV_IsbL-0700_RLatLon0.09_PT005H.grib2 2026-04-30 20:40 509K
20260430T18Z_MSC_RDPS_WindV_IsbL-0750_RLatLon0.09_PT005H.grib2 2026-04-30 20:40 534K
20260430T18Z_MSC_RDPS_WindV_IsbL-0800_RLatLon0.09_PT005H.grib2 2026-04-30 20:40 569K
20260430T18Z_MSC_RDPS_WindV_IsbL-0850_RLatLon0.09_PT005H.grib2 2026-04-30 20:40 611K
20260430T18Z_MSC_RDPS_WindV_IsbL-0875_RLatLon0.09_PT005H.grib2 2026-04-30 20:40 628K
20260430T18Z_MSC_RDPS_WindV_IsbL-0900_RLatLon0.09_PT005H.grib2 2026-04-30 20:40 641K
20260430T18Z_MSC_RDPS_WindV_IsbL-0925_RLatLon0.09_PT005H.grib2 2026-04-30 20:40 786K
20260430T18Z_MSC_RDPS_WindV_IsbL-0950_RLatLon0.09_PT005H.grib2 2026-04-30 20:40 786K
20260430T18Z_MSC_RDPS_WindV_IsbL-0970_RLatLon0.09_PT005H.grib2 2026-04-30 20:40 784K
20260430T18Z_MSC_RDPS_WindV_IsbL-0985_RLatLon0.09_PT005H.grib2 2026-04-30 20:40 779K
20260430T18Z_MSC_RDPS_WindV_IsbL-1000_RLatLon0.09_PT005H.grib2 2026-04-30 20:40 774K
20260430T18Z_MSC_RDPS_WindV_IsbL-1015_RLatLon0.09_PT005H.grib2 2026-04-30 20:40 813K